Location: Lafig�re
(44.4503°N, 4.0357°E)
Time: 15:40:27
(UTC+00:00)

deb Explorer IX - Pass Details

Date: 24 January 2021
Orbit: 537 x 1102 km, 38.8° (Epoch: 04 March)

Event Time Altitude Azimuth Distance (km) Brightness Sun altitude
Rises 16:18:55 0° 215° (SW) 3,799 ? 2.8°
Reaches altitude 10° 16:22:19 10° 202° (SSW) 2,776 ? 2.3°
Maximum altitude 16:27:21 23° 153° (SSE) 1,878 ? 1.5°
Drops below altitude 10° 16:31:56 10° 104° (ESE) 2,495 ? 0.8°
Sets 16:34:48 0° 89° (E) 3,327 ? 0.3°
